Flag for India Weather past 2 weeks in Thiruvananthapuram, Kerala, India

82 °F

More clouds than sun.

Feels Like: 91 °F
Forecast: 78 / 81 °F
Wind: No wind

Location: Thiruvananthapuram

Current Time: Nov 30, 2015 at 12:21:44 PM

Latest Report: Nov 30, 2015 at 11:30 AM

Visibility: 2 mi

Pressure: 29.92 "Hg

Humidity: 84%

Dew point: 77 °F

Location of ThiruvananthapuramLocation

Historic Weather in Thiruvananthapuram — Graph


Thiruvananthapuram temperature yesterday

Maximum temperature yesterday: 90 °F (at 2:00 PM)
Minimum temperature yesterday: 77 °F (at 3:30 AM)
Average temperature yesterday: 83 °F

Past Weeks' High & Low Weather Summary

High90 °F (Nov 17, 1:00 PM)94% (Nov 15, 3:00 PM)29.95 "Hg (Nov 15, 3:00 PM)
Low77 °F (Nov 16, 1:30 AM)62% (Nov 29, 11:30 AM)29.68 "Hg (Nov 15, 3:00 PM)
Average82 °F82%29.79 "Hg
* Reported Nov 15 10:30 AM — Nov 30 11:00 AM, Thiruvananthapuram, Weather by CustomWeather, © 2015

Note: Actual official high and low records may vary slightly from our data, if they occured in-between our weather recording intervals... More about our weather records


Thiruvananthapuram weather history for previous 24 hours

Time TempWeatherWind HumidityBarometerVisibility
11:00 AM
Mon, Nov 30
81 °FMore clouds than sun.3 mph89%29.92 "Hg2 mi
10:30 AM81 °FMore clouds than sun.3 mph89%29.95 "Hg2 mi
10:00 AM79 °FDrizzle. More clouds than sun.3 mph94%29.95 "Hg2 mi
9:30 AM79 °FDrizzle. More clouds than sun.No wind94%29.95 "Hg2 mi
8:30 AM77 °FDrizzle. More clouds than sun.No wind94%29.92 "Hg2 mi
7:30 AM77 °FDrizzle. More clouds than sun.No wind94%29.89 "Hg2 mi
6:30 AM77 °FDrizzle. Mostly cloudy.No wind94%29.86 "Hg2 mi
5:30 AM77 °FLight rain. Mostly cloudy.No wind94%29.86 "Hg2 mi
4:30 AM79 °FLight rain. Mostly cloudy.No wind89%29.86 "Hg2 mi
3:30 AM79 °FLight rain. Mostly cloudy.No wind89%29.86 "Hg2 mi
1:30 AM81 °FPassing clouds.5 mph89%29.86 "Hg2 mi
12:30 AM81 °FPassing clouds.6 mph89%29.86 "Hg2 mi
11:30 PM
Sun, Nov 29
81 °FPartly cloudy.6 mph89%29.89 "Hg2 mi
10:30 PM81 °FPartly cloudy.5 mph84%29.89 "Hg2 mi
10:00 PM81 °FPartly cloudy.No wind84%29.92 "Hg2 mi
9:30 PM81 °FPartly cloudy.3 mph84%29.92 "Hg2 mi
8:00 PM82 °FPassing clouds.No wind79%29.89 "Hg2 mi
7:00 PM84 °FPassing clouds.No wind74%29.83 "Hg2 mi
6:30 PM84 °FHaze.No wind74%29.83 "Hg2 mi
6:00 PM86 °FHaze.5 mph70%29.83 "Hg3 mi
5:30 PM86 °FHaze.5 mph70%29.80 "Hg3 mi
5:00 PM86 °FPassing clouds.7 mph70%29.80 "Hg4 mi
4:30 PM88 °FPassing clouds.No wind66%29.80 "Hg4 mi
4:00 PM88 °FPassing clouds.6 mph70%29.77 "Hg4 mi
3:30 PM90 °FScattered clouds.6 mph67%29.77 "Hg4 mi
3:00 PM90 °FScattered clouds.6 mph67%29.77 "Hg4 mi
2:00 PM90 °FPassing clouds.6 mph63%29.80 "Hg4 mi
1:30 PM88 °FPassing clouds.7 mph66%29.80 "Hg4 mi
12:00 PM88 °FPassing clouds.6 mph62%29.86 "Hg4 mi
Weather by CustomWeather, © 2015

See weather overviewHow to use our weather pages